Temperature
19 19 19 19 19 19 19 19 19 19 19 19 19 19 19 19 19 19 19 18 18 18 18 18 18 18 18 18 18 18 17 17 17 17 17 17 17 17 17 17 16 16 16
19 19 19 19 19 19 19 19 19 19 19 19 19 19 19 19 19 19 18 18 18 18 18 18 18 18 18 18 18 18 18 17 17 17 17 17 17 17 17 17 16 16 16
19 19 19 19 19 19 19 19 19 19 19 19 19 19 19 19 19 19 18 18 18 18 18 18 18 18 18 18 18 18 18 17 17 17 17 17 17 17 16 16 16 16 16
19 19 19 19 19 19 19 19 19 19 19 19 19 19 19 19 19 18 18 18 18 18 18 18 18 18 18 18 18 18 18 17 17 17 17 17 17 17 16 16 16 16 16
19 19 19 19 19 19 19 19 19 19 19 19 19 19 19 19 18 18 18 18 18 18 18 18 18 18 18 18 18 18 18 17 17 17 17 17 17 17 16 16 16 16 16
19 19 19 19 19 19 19 19 19 19 19 19 19 19 19 19 18 18 18 18 18 18 18 18 18 18 18 18 18 18 17 17 17 17 17 17 17 17 16 16 16 16 16
19 19 19 19 19 19 19 19 19 18 18 19 19 18 18 18 18 18 18 18 18 18 18 18 18 18 18 18 18 18 17 17 17 17 17 17 17 17 17 16 16 16 16
19 19 19 19 19 19 19 19 18 18 18 18 18 18 18 18 18 18 18 18 18 18 18 18 18 18 18 18 18 18 18 17 17 17 17 17 17 17 17 16 16 16 16
19 19 19 19 19 19 19 18 18 18 18 18 18 18 18 18 18 18 18 18 18 18 18 18 18 18 18 18 18 17 17 17 17 17 17 17 17 17 17 16 16 16 16
19 19 19 19 19 19 18 18 18 18 18 18 18 18 18 18 18 18 18 18 18 18 18 18 18 18 18 18 17 17 17 17 17 17 17 17 17 17 17 16 16 16 16
19 19 19 19 19 19 18 18 18 18 18 18 18 18 18 18 18 17 17 18 18 18 18 18 18 18 18 17 17 17 17 17 17 17 17 17 17 17 16 16 16 16 16
18 18 18 18 18 18 18 18 18 18 18 18 18 18 18 18 17 17 17 17 17 18 18 17 17 17 17 17 17 17 17 17 17 17 16 16 16 16 16 16 16 16 16
18 18 18 18 18 18 18 18 18 18 18 18 18 18 17 17 17 17 17 17 17 17 17 17 17 17 17 17 17 17 17 17 17 16 16 16 16 16 16 16 16 16 16
18 18 18 18 18 18 18 18 18 18 17 17 17 17 17 17 17 17 17 17 17 17 17 17 17 17 17 17 17 17 17 17 17 16 16 16 16 16 16 16 16 16 16
18 18 18 18 18 18 18 18 18 17 17 17 17 17 17 17 17 17 17 17 17 16 16 17 17 17 17 17 17 17 17 16 16 16 16 16 16 16 16 16 16 15 15
18 18 18 18 18 18 18 17 17 17 17 17 17 17 17 17 17 17 17 17 16 16 16 16 16 16 16 16 16 16 16 16 16 16 16 16 16 15 15 15 15 15 15
18 18 18 18 18 18 18 17 17 17 17 17 17 17 17 17 17 17 17 17 16 16 16 16 16 16 16 16 16 16 16 16 16 16 15 15 15 15 15 15 15 15 15
18 18 18 18 17 17 17 17 17 17 17 17 17 17 17 17 17 16 16 16 16 16 16 16 16 16 16 16 16 16 15 15 15 15 15 15 15 15 15 15 14 14 14
18 17 17 17 17 17 17 17 17 17 17 17 16 16 16 16 16 16 16 16 16 16 16 16 16 16 15 15 15 15 15 15 15 15 15 15 15 14 14 14 14 14 14
17 17 17 17 17 17 17 16 16 16 16 16 16 16 16 16 16 16 16 16 16 16 16 16 15 15 15 15 15 15 15 15 15 14 14 14 14 14 14 14 14 14 14
17 17 17 16 16 16 16 16 16 16 16 16 16 16 16 16 15 15 15 15 15 15 15 15 15 15 15 14 14 14 14 14 14 14 14 14 14 14 14 14 14 14 13
16 16 16 16 16 16 16 16 16 16 16 16 16 16 16 15 15 15 15 15 15 15 15 15 14 14 14 14 14 14 14 13 14 14 14 14 14 13 13 13 13 13 13
16 16 16 16 16 15 15 15 15 15 15 15 15 15 15 15 15 15 15 14 14 14 14 14 14 14 14 14 14 13 13 13 13 13 13 13 13 13 13 13 13 13 13
16 16 16 16 15 15 15 15 15 15 15 15 15 15 15 15 15 14 14 14 14 14 14 14 14 14 14 14 13 13 13 13 13 13 13 13 13 13 13 13 12 12 12
16 16 16 15 15 15 15 15 15 15 15 15 15 15 15 15 15 14 14 14 14 14 14 14 14 13 13 13 13 13 13 13 12 13 12 12 12 12 12 12 12 12 12
16 15 15 15 15 15 15 15 14 14 14 14 14 14 14 14 14 14 14 14 14 14 14 14 14 13 13 13 13 13 13 13 12 12 12 12 12 12 12 12 12 12 12
Wind_Speed
2 3 3 3 4 4 4 3 3 3 2 2 3 3 2 4 5 6 7 10 11 12 12 12 11 11 11 11 11 11 11 11 11 11 11 10 11 11 11 12 11 11 11
3 2 2 3 3 5 5 4 3 3 2 1 2 3 3 5 5 6 7 9 11 12 12 12 11 11 11 10 11 11 12 11 11 11 10 10 11 11 11 11 11 11 11
5 3 2 2 3 4 4 3 2 1 1 1 1 2 3 4 5 6 7 8 8 10 11 11 11 11 10 10 11 11 11 11 11 11 11 11 12 12 11 11 11 11 11
5 3 2 2 3 3 2 2 1 1 1 1 1 2 2 2 4 5 6 7 7 7 9 10 10 10 10 10 10 11 11 12 12 11 11 11 11 11 11 12 12 11 10
5 3 2 2 2 2 1 2 1 2 1 1 1 1 1 1 3 4 4 6 7 8 8 8 9 9 9 9 9 10 11 11 11 11 11 12 12 12 11 11 12 11 11
4 3 2 2 2 1 1 1 1 1 1 1 1 0 1 2 2 2 4 5 6 8 8 7 7 8 8 8 8 8 8 8 9 10 11 12 12 11 12 11 12 12 12
4 3 1 2 2 2 2 2 1 1 1 1 2 2 2 1 2 2 2 3 4 6 7 8 7 7 6 8 8 8 8 7 8 8 9 10 11 11 11 12 11 11 11
2 3 2 3 3 2 2 2 1 1 0 1 2 2 2 3 3 2 1 3 3 4 5 7 7 8 7 6 8 9 8 8 7 7 7 8 9 9 10 11 11 10 10
3 3 3 2 2 3 3 2 2 2 1 0 2 3 2 3 2 3 2 2 2 2 3 5 7 8 9 8 7 9 10 9 8 7 7 7 7 9 9 10 9 9 10
2 3 3 2 2 2 3 2 2 2 2 1 1 1 2 3 2 2 3 2 2 3 3 4 5 7 8 8 8 9 10 10 9 8 8 8 7 7 8 9 9 8 9
1 2 2 2 1 1 2 2 1 2 2 2 2 1 0 1 2 2 2 3 2 2 2 3 4 5 7 8 7 9 10 10 9 9 9 8 7 7 7 8 9 9 9
1 1 2 1 1 1 2 3 2 2 2 2 2 1 2 2 1 2 3 3 3 3 2 2 2 4 5 7 8 9 9 10 10 11 10 9 8 7 7 7 7 8 8
1 2 2 1 2 2 2 2 2 2 2 2 2 2 2 2 2 2 2 2 2 2 1 1 2 3 4 5 7 8 9 9 10 10 10 10 9 8 8 7 7 7 7
3 3 2 2 2 2 2 2 2 2 2 2 2 2 2 2 2 2 3 2 1 2 1 2 1 2 3 4 6 8 7 9 11 11 10 10 10 9 8 8 7 6 6
3 3 2 2 2 3 3 2 2 2 2 2 2 2 2 2 2 2 2 3 3 2 3 3 2 2 3 5 5 6 7 9 11 12 11 10 10 10 9 8 7 7 6
3 3 2 2 2 2 3 2 1 2 2 2 2 2 2 2 2 2 2 2 3 4 3 3 3 2 2 3 4 6 7 8 10 11 12 11 10 10 9 9 8 7 6
3 3 3 2 2 2 2 2 2 2 2 2 2 2 2 2 1 2 2 2 2 3 3 3 2 1 2 2 2 3 4 5 6 7 9 10 11 10 10 9 8 7 7
3 3 3 2 2 2 1 2 3 2 2 2 2 1 2 2 2 2 1 2 2 2 3 3 2 1 2 2 2 2 3 3 4 6 6 7 8 9 10 10 9 8 8
3 2 2 2 2 2 2 2 2 3 3 3 3 3 3 2 2 2 2 2 2 2 2 2 2 1 1 1 0 1 1 1 3 4 5 6 7 7 8 9 9 9 8
3 2 2 3 3 2 2 2 2 2 3 3 3 3 3 3 3 3 3 3 2 1 1 1 1 1 1 1 0 1 1 2 2 2 2 4 4 6 7 7 8 8 7
3 2 2 2 2 2 1 1 2 2 2 2 2 3 3 3 4 4 3 3 3 2 2 2 2 1 1 1 2 2 2 2 2 1 1 2 2 2 4 5 6 7 7
2 2 2 2 2 2 2 2 1 2 2 2 3 3 3 3 3 3 4 4 4 4 4 3 3 3 4 3 2 2 1 1 3 2 1 2 2 2 3 5 6 7 8
3 2 3 3 3 3 3 2 1 2 2 2 3 3 3 3 2 2 2 3 3 5 6 6 5 5 5 5 4 3 3 3 4 3 1 2 2 2 3 4 6 8 8
3 3 3 4 3 3 3 3 1 1 1 2 3 3 3 3 2 2 2 2 3 3 5 5 6 6 6 5 6 6 5 3 2 2 2 2 2 2 2 3 6 7 7
3 3 4 4 3 3 3 2 1 1 1 2 3 3 3 4 4 3 2 2 2 3 4 5 6 6 7 7 6 3 2 2 2 3 1 2 2 1 1 2 4 7 7
3 3 3 4 4 3 3 3 2 1 1 2 3 3 4 4 4 4 4 4 4 4 3 2 2 2 2 3 5 5 5 4 2 2 2 2 2 1 1 2 2 4 5
Wind_Direction
183 191 201 208 209 207 209 215 221 232 247 252 226 198 177 179 187 195 198 199 201 204 202 200 199 199 202 205 207 207 207 208 208 208 209 209 210 212 213 212 211 213 215
176 186 201 211 215 216 219 217 217 216 226 211 212 186 190 186 186 194 195 197 203 207 205 203 204 206 208 211 214 215 214 212 212 212 213 214 214 215 216 216 216 217 217
172 178 197 204 213 215 214 210 216 195 207 211 218 211 195 188 186 191 191 195 200 204 206 207 207 209 212 215 219 217 217 217 217 216 216 216 218 218 217 216 218 218 218
167 170 194 212 210 193 181 182 180 182 223 211 215 228 213 181 188 193 189 191 194 199 207 209 209 211 214 217 219 218 218 219 219 218 217 219 221 219 221 221 218 217 218
169 169 195 216 188 168 179 190 167 174 196 229 226 209 207 200 196 193 192 199 197 199 201 208 210 212 216 221 219 218 220 221 220 220 220 222 223 221 222 222 220 219 221
175 172 193 205 173 162 178 173 178 189 194 216 232 220 224 214 212 202 205 202 200 202 203 202 204 213 217 216 213 213 220 223 224 223 223 223 222 221 221 221 223 223 224
183 183 202 190 184 182 196 175 171 188 232 111 71 7 347 306 253 234 213 200 207 209 200 197 196 198 205 211 212 214 220 224 223 223 222 222 221 222 221 220 223 225 228
195 199 197 196 185 178 177 175 151 144 219 129 127 103 0 343 323 283 235 207 212 200 199 202 193 196 200 201 211 215 217 221 226 223 218 220 219 220 221 220 222 225 227
192 188 183 177 178 175 184 193 169 154 171 243 155 147 153 229 294 314 277 242 221 206 210 195 193 201 201 203 209 215 218 219 222 223 220 217 217 219 220 219 220 223 222
185 164 145 151 162 168 165 196 178 172 161 195 251 188 175 171 175 290 317 302 253 223 219 204 196 198 203 203 209 212 215 215 216 222 227 226 222 219 222 223 223 224 220
185 165 156 147 150 164 177 192 183 180 175 176 191 206 204 150 162 174 259 298 313 278 235 214 196 195 203 202 207 214 215 215 212 216 225 228 226 222 224 227 227 225 222
237 199 169 165 169 173 194 196 187 177 186 179 180 171 169 168 194 180 218 246 265 281 275 240 208 200 204 202 209 216 214 215 216 218 222 224 225 224 226 229 228 228 227
222 222 206 194 195 202 206 197 184 199 187 181 196 203 193 196 180 174 182 224 250 279 301 293 245 212 211 206 210 216 214 216 222 221 222 222 223 224 226 230 229 227 226
208 207 200 204 205 202 196 185 191 212 201 208 221 206 208 223 190 176 177 173 232 296 306 274 284 240 220 204 210 209 209 218 224 223 224 225 225 224 226 228 227 227 224
202 191 194 203 210 206 198 178 198 224 213 214 220 217 219 234 207 201 188 173 171 219 258 259 254 257 222 209 213 203 206 220 224 223 227 231 233 228 226 223 221 217 221
198 189 205 200 201 203 199 187 201 218 204 219 209 204 224 234 218 214 210 195 179 184 225 240 238 257 236 225 222 205 209 215 220 224 225 228 232 231 227 223 219 217 218
184 190 199 196 198 202 200 193 206 197 203 225 231 209 227 218 214 228 220 206 201 179 216 258 249 250 241 252 225 216 217 212 222 228 230 231 230 226 221 221 221 218 220
186 186 182 180 194 197 200 204 215 204 195 211 233 229 249 240 234 237 225 228 223 203 191 241 268 247 247 245 232 225 232 227 226 229 229 237 234 223 217 219 221 218 218
194 190 175 186 202 203 206 223 220 215 208 210 213 219 236 219 240 246 233 236 234 222 182 190 249 258 267 269 313 281 265 272 240 230 232 241 237 228 222 222 220 216 215
197 200 197 201 207 209 207 226 223 228 227 225 219 220 226 217 229 237 241 237 226 202 179 175 226 255 272 277 139 267 304 289 266 239 234 231 230 229 229 226 221 215 210
213 205 202 218 215 208 217 232 235 236 229 247 253 242 234 226 227 231 239 225 206 200 194 196 222 231 253 250 239 230 250 274 274 255 254 245 217 227 236 227 221 220 215
208 198 192 200 214 256 276 248 230 235 231 233 257 263 258 242 242 240 245 231 209 202 203 205 220 221 236 228 226 217 215 264 276 264 200 255 211 226 233 223 218 213 213
193 200 203 180 195 241 250 237 242 197 210 232 248 262 269 268 231 224 256 260 250 228 207 202 213 226 225 219 203 215 217 221 242 240 179 247 240 237 242 230 222 212 215
191 201 200 191 195 231 227 217 209 162 193 237 241 242 249 261 241 207 236 251 260 259 233 218 214 223 223 215 201 205 211 225 267 264 183 217 246 242 250 236 225 216 219
199 198 195 195 199 234 234 212 137 161 247 267 261 255 243 244 240 209 206 230 266 283 267 235 223 229 227 216 193 173 185 184 256 263 213 181 227 260 266 255 237 220 222
198 196 198 200 200 218 217 198 165 171 230 274 288 277 255 244 245 226 210 215 238 260 268 270 272 268 236 206 192 191 192 194 211 248 235 171 200 165 279 276 248 230 231
Height
1546 1547 1547 1547 1548 1548 1549 1549 1550 1550 1551 1551 1552 1552 1552 1552 1553 1553 1553 1553 1553 1553 1554 1554 1554 1554 1554 1555 1555 1555 1556 1556 1556 1557 1557 1558 1558 1559 1560 1561 1561 1562 1563
1546 1546 1547 1547 1547 1548 1548 1549 1549 1550 1550 1551 1551 1551 1551 1552 1552 1552 1552 1553 1552 1553 1553 1553 1553 1553 1553 1554 1554 1554 1554 1555 1555 1555 1555 1556 1556 1557 1558 1558 1559 1560 1561
1546 1546 1546 1546 1547 1547 1548 1548 1548 1549 1549 1550 1550 1551 1551 1551 1551 1552 1552 1552 1552 1552 1552 1552 1552 1552 1552 1552 1552 1552 1552 1552 1553 1553 1553 1554 1554 1555 1556 1556 1557 1558 1558
1545 1545 1545 1545 1546 1546 1547 1547 1547 1548 1548 1549 1549 1550 1550 1550 1551 1551 1551 1551 1551 1551 1551 1551 1551 1551 1551 1551 1551 1551 1551 1551 1551 1551 1551 1551 1552 1552 1553 1554 1554 1555 1556
1545 1545 1544 1545 1545 1545 1546 1546 1546 1547 1547 1547 1548 1548 1549 1549 1549 1550 1550 1550 1550 1550 1550 1550 1550 1550 1550 1550 1550 1549 1549 1549 1549 1549 1549 1549 1549 1550 1550 1551 1551 1552 1553
1544 1544 1544 1543 1544 1544 1544 1545 1545 1546 1546 1546 1547 1547 1548 1548 1548 1548 1548 1548 1549 1549 1549 1549 1549 1549 1548 1548 1548 1548 1548 1548 1547 1547 1547 1547 1547 1547 1548 1548 1548 1549 1550
1543 1543 1543 1542 1542 1543 1543 1543 1544 1544 1545 1545 1545 1546 1546 1547 1547 1547 1547 1547 1547 1547 1547 1547 1547 1547 1547 1547 1547 1547 1546 1546 1546 1545 1545 1545 1545 1545 1545 1545 1546 1546 1547
1542 1542 1542 1541 1541 1541 1542 1543 1543 1543 1544 1544 1544 1544 1545 1546 1545 1545 1545 1545 1545 1545 1545 1546 1546 1546 1546 1546 1546 1545 1545 1544 1544 1543 1543 1543 1543 1543 1543 1543 1543 1544 1544
1541 1541 1540 1540 1540 1540 1541 1541 1542 1542 1542 1543 1543 1544 1544 1543 1543 1544 1543 1543 1543 1543 1543 1543 1544 1544 1544 1544 1544 1543 1543 1542 1542 1541 1541 1541 1541 1540 1541 1541 1541 1541 1541
1540 1540 1539 1539 1539 1539 1539 1540 1540 1541 1541 1541 1542 1542 1543 1542 1542 1542 1542 1542 1542 1541 1541 1541 1542 1542 1542 1542 1541 1541 1541 1540 1540 1539 1539 1539 1538 1538 1538 1538 1538 1538 1539
1538 1538 1537 1537 1537 1537 1538 1538 1538 1538 1539 1539 1539 1540 1540 1540 1540 1540 1540 1540 1540 1539 1539 1539 1540 1540 1539 1539 1539 1539 1538 1538 1537 1537 1536 1536 1536 1536 1536 1536 1536 1536 1536
1536 1536 1536 1536 1535 1535 1536 1536 1536 1537 1537 1537 1537 1537 1538 1538 1538 1538 1538 1537 1537 1537 1537 1537 1537 1537 1537 1537 1536 1536 1536 1536 1535 1535 1535 1535 1534 1534 1534 1534 1534 1534 1534
1534 1534 1534 1534 1534 1534 1534 1534 1534 1534 1535 1535 1535 1535 1536 1536 1536 1536 1536 1535 1535 1535 1535 1535 1535 1535 1535 1534 1534 1534 1534 1533 1533 1533 1533 1533 1532 1532 1531 1531 1531 1531 1531
1532 1533 1533 1533 1533 1532 1532 1532 1532 1532 1533 1533 1533 1533 1533 1534 1534 1534 1534 1534 1533 1532 1532 1532 1532 1532 1532 1532 1531 1531 1531 1531 1531 1531 1530 1530 1530 1530 1529 1529 1529 1528 1528
1530 1531 1531 1531 1531 1530 1530 1530 1530 1530 1530 1530 1530 1531 1531 1531 1531 1531 1531 1531 1532 1530 1529 1529 1529 1530 1530 1529 1529 1529 1528 1528 1528 1528 1528 1528 1527 1527 1527 1527 1526 1526 1526
1528 1528 1528 1529 1529 1528 1528 1528 1527 1528 1528 1528 1528 1528 1528 1528 1528 1528 1528 1528 1528 1528 1527 1526 1526 1527 1527 1526 1526 1526 1525 1525 1525 1525 1525 1524 1524 1524 1524 1524 1524 1524 1523
1526 1526 1526 1526 1526 1526 1526 1526 1526 1525 1525 1525 1525 1525 1525 1525 1525 1525 1525 1525 1525 1525 1524 1524 1524 1524 1524 1524 1523 1523 1523 1523 1522 1522 1522 1521 1521 1521 1520 1521 1521 1521 1521
1523 1523 1523 1523 1523 1524 1524 1524 1524 1523 1523 1522 1522 1522 1522 1522 1522 1522 1522 1522 1522 1522 1521 1520 1520 1520 1520 1520 1520 1520 1520 1520 1519 1519 1519 1518 1518 1518 1518 1518 1518 1518 1518
1521 1521 1521 1520 1521 1521 1521 1521 1521 1521 1520 1520 1520 1519 1519 1519 1519 1519 1519 1519 1519 1518 1518 1517 1517 1517 1517 1517 1517 1517 1517 1516 1516 1516 1516 1516 1516 1515 1515 1515 1516 1516 1516
1518 1518 1518 1518 1518 1518 1518 1518 1518 1518 1517 1517 1517 1517 1516 1516 1516 1515 1515 1515 1515 1515 1514 1514 1514 1513 1514 1514 1514 1513 1513 1513 1513 1513 1513 1513 1513 1513 1513 1512 1512 1512 1512
1514 1515 1515 1515 1515 1515 1514 1514 1514 1514 1514 1514 1514 1513 1513 1513 1512 1512 1512 1511 1511 1511 1511 1511 1510 1510 1510 1510 1510 1510 1510 1510 1510 1510 1510 1509 1510 1509 1509 1509 1509 1509 1509
1511 1512 1512 1512 1511 1511 1512 1511 1511 1510 1510 1510 1510 1509 1509 1509 1508 1508 1508 1508 1508 1508 1507 1507 1506 1506 1506 1506 1507 1507 1507 1506 1506 1507 1506 1506 1506 1506 1506 1506 1506 1506 1506
1508 1508 1508 1508 1508 1508 1508 1508 1507 1507 1507 1507 1506 1506 1506 1505 1504 1504 1504 1504 1504 1504 1504 1504 1503 1502 1503 1503 1503 1503 1503 1503 1503 1503 1503 1502 1502 1502 1502 1502 1502 1502 1503
1505 1505 1505 1505 1505 1505 1505 1504 1504 1503 1503 1503 1503 1502 1502 1501 1501 1500 1500 1500 1500 1499 1499 1499 1499 1499 1499 1500 1500 1500 1500 1500 1500 1500 1500 1499 1499 1499 1499 1499 1499 1499 1499
1501 1501 1501 1501 1501 1501 1501 1501 1500 1500 1500 1499 1499 1499 1499 1498 1497 1497 1497 1496 1496 1495 1495 1495 1495 1496 1496 1496 1496 1496 1496 1496 1495 1496 1496 1496 1495 1495 1495 1495 1496 1496 1496
1498 1498 1498 1498 1498 1498 1498 1498 1498 1497 1497 1496 1495 1495 1496 1495 1494 1494 1493 1493 1492 1492 1492 1492 1492 1492 1492 1492 1493 1493 1493 1493 1492 1492 1493 1493 1493 1492 1492 1492 1493 1493 1493